This is the latest recevied weather packets stored in our database for station/object OE-11140. If no packets are shown the sender has not sent any weather packets the latest 10 day(s).
| Time | Temp. | Humidity | Pressure | Rain* | Wind** | Luminosity | Snow |
|---|---|---|---|---|---|---|---|
| 1788005488 | 22.78° C | 46% | 1014.9 hPa | 0 mm | - | 272 W/m² | - |
| 1788005116 | 22.78° C | 45% | 1015.1 hPa | 0 mm | - | 278 W/m² | - |
| 1788004516 | 22.78° C | 43% | 1015.1 hPa | 0 mm | - | 272 W/m² | - |
| 1788003689 | 22.78° C | 46% | 1015 hPa | 0 mm | - | 371 W/m² | - |
| 1788003316 | 22.78° C | 41% | 1015.2 hPa | 0 mm | - | 451 W/m² | - |
| 1788002716 | 22.78° C | 45% | 1015.3 hPa | 0 mm | - | 424 W/m² | - |
| 1788001889 | 22.78° C | 43% | 1015.4 hPa | 0 mm | - | 471 W/m² | - |
| 1788001515 | 22.78° C | 46% | 1015.5 hPa | 0 mm | - | 676 W/m² | - |
| 1788000916 | 22.22° C | 44% | 1015.7 hPa | 0 mm | - | 490 W/m² | - |
| 1788000089 | 22.22° C | 46% | 1015.8 hPa | 0 mm | - | 683 W/m² | - |
| 1787999716 | 22.22° C | 44% | 1016 hPa | 0 mm | - | 828 W/m² | - |
| 1787999116 | 22.22° C | 48% | 1015.9 hPa | 0 mm | - | 696 W/m² | - |
| 1787998289 | 21.67° C | 50% | 1016.2 hPa | 0 mm | - | 643 W/m² | - |
| 1787997915 | 21.67° C | 60% | 1016.3 hPa | 0 mm | - | 828 W/m² | - |
| 1787997316 | 20.56° C | 57% | 1016.6 hPa | 0 mm | - | 769 W/m² | - |
| 1787996489 | 20.56° C | 57% | 1016.7 hPa | 0 mm | - | 742 W/m² | - |
| 1787996116 | 19.44° C | 61% | 1017.1 hPa | 0 mm | - | 709 W/m² | - |
| 1787995516 | 19.44° C | 61% | 1017.2 hPa | 0 mm | - | 696 W/m² | - |
| 1787994689 | 20° C | 61% | 1017.2 hPa | 0 mm | - | 702 W/m² | - |
| 1787994316 | 18.33° C | 64% | 1017.7 hPa | 0 mm | - | 649 W/m² | - |
| 1787993716 | 18.33° C | 67% | 1017.8 hPa | 0 mm | - | 577 W/m² | - |
| 1787992888 | 17.22° C | 68% | 1018.3 hPa | 0 mm | - | 384 W/m² | - |
| 1787992515 | 17.22° C | 69% | 1018.3 hPa | 0 mm | - | 378 W/m² | - |
| 1787991915 | 16.67° C | 74% | 1018.6 hPa | 0 mm | - | 272 W/m² | - |
| 1787991089 | 16.11° C | 75% | 1018.8 hPa | 0 mm | - | 265 W/m² | - |
* Rain latest hour (hover to see other rain measurements)
** Current wind speed in m/s (hover to see current wind gust speed)